Regional Weather Roundup
Issued by NWS

Home | Current Version | Previous Version | Text Only | Print | Product List | Glossary Off
Versions: 1 2 3 4 5 6 7 8 9 10 11 12 13 14 15 16 17 18 19 20 21 22 23 24 25 26 27 28 29 30 31 32 33 34 35 36 37 38 39 40 41 42 43 44 45 46 47 48 49 50

890
ASUS44 KLIX 192101
RWRLA
LOUISIANA WEATHER ROUNDUP
NATIONAL WEATHER SERVICE NEW ORLEANS LA
400 PM CDT FRI SEP 19 2014

NOTE: "FAIR" INDICATES FEW OR NO CLOUDS BELOW 12,000 FEET WITH NO
      SIGNIFICANT WEATHER AND/OR OBSTRUCTIONS TO VISIBILITY.
      SKY/WX - SKY CONDITION AND SIGNIFICANT WEATHER.
      TMP - AIR TEMPERATURE.    DP   - DEWPOINT TEMPERATURE.
      RH  - RELATIVE HUMIDITY.  PRES - PRESSURE.
      HX  - HEAT INDEX.         WCI  - WIND CHILL INDEX.

*  THESE STATIONS ARE NOT NWS OR FAA STATIONS AND ARE NOT UNDER
   NWS QUALITY CONTROL.

LAZ040-048-061>063-065-066-069-192200-
SOUTHEAST LOUISIANA

CITY           SKY/WX    TMP DP  RH WIND       PRES   REMARKS
N.O. AUDUBON   NOT AVBL
N.O. INTL ARPT MOSUNNY   85  68  56 E9        29.92S
N.O. LAKEFRONT MOSUNNY   85  71  63 E16G23    29.92F
N.O. DOWNTOWN* MOCLDY    82  68  61 SE10      29.93S
SLIDELL        SUNNY     87  65  47 SE13      29.92F
BATON ROUGE    PTSUNNY   85  70  60 NE8       29.91F
BOOTHVILLE     CLOUDY    80  72  76 E12       29.92S
BELLE CHASSE   PTSUNNY   81  69  67 E13       29.92S
BOGALUSA*      FAIR      89  69  51 SE7       29.94F
GALLIANO*      NOT AVBL
NEW ROADS*     FAIR      87  70  56 N9        29.92F
GONZALES*      FAIR      87  69  54 E9        29.91F
HAMMOND*       NOT AVBL
HOUMA*         MOSUNNY   75  68  78 E12       29.91S
PORT FOURCHON* MOCLDY    79  70  73 E13G21    29.93F

$$

LAZ041-044-053-054-192200-
SOUTHWEST LOUISIANA

CITY           SKY/WX    TMP DP  RH WIND       PRES   REMARKS
LAKE CHARLES   MOSUNNY   84  71  65 E9        29.89F
LAFAYETTE      PTSUNNY   86  71  60 E6        29.91F
PATTERSON      SUNNY     88  72  58 E10G18    29.93S
SALT POINT       N/A     89  71  55 SE8       29.89S HX  95
NEW IBERIA     MOSUNNY   89  70  53 NE10      29.90F
CHENAULT AIRPK NOT AVBL

$$

LAZ027-028-192200-
CENTRAL LOUISIANA

CITY           SKY/WX    TMP DP  RH WIND       PRES   REMARKS
FORT POLK      SUNNY     87  66  49 SE10      29.92F
ALEXANDRIA INT MOSUNNY   89  67  47 SE9       29.91F
ALEXANDRIA     SUNNY     90  69  50 E7        29.93F

$$

LAZ001-002-192200-
NORTHWEST LOUISIANA

CITY           SKY/WX    TMP DP  RH WIND       PRES   REMARKS
SHREVEPORT     MOSUNNY   89  67  47 E13       29.91F
BARKSDALE AFB  MOSUNNY   89  67  48 SE8       29.93F
DTN SHREVEPORT PTSUNNY   88  68  51 E8        29.92F

$$

LAZ014-016-192200-
NORTHEAST LOUISIANA

CITY           SKY/WX    TMP DP  RH WIND       PRES   REMARKS
MONROE         MOSUNNY   88  67  49 E6        29.95F
TALLULAH       SUNNY     88  65  46 E6        29.94F

$$




USA.gov is the U.S. government's official web portal to all federal, state and local government web resources and services.